Terminal Aerodrome Forecast
Issued by NWS

Home | Current Version | Previous Version | Graphics & Text | Print | Product List | Glossary On
Versions: 1 2 3 4 5 6 7 8 9 10 11 12 13 14 15 16 17 18 19 20 21 22
000
FTUS43 KBIS 271300 AAA
TAFJMS
TAF AMD
KJMS 271358Z 2714/2812 00000KT 1/4SM FG VV002
     FM271500 19003KT 3SM BR SCT005
      TEMPO 2715/2716 1SM BR BKN004
     FM271600 16009KT P6SM SCT040
     FM280800 15005KT P6SM VCSH BKN040=

USA.gov is the U.S. government's official web portal to all federal, state and local government web resources and services.